Tracking 32571 objects as of 17-Dec-2025
HD Live streaming from Space Station
objects crossing your sky now

STARLINK-5031

Track STARLINK-5031 now!
10-day predictions
STARLINK-5031 is classified as:


NORAD ID: 53889
Int'l Code: 2022-119D
Perigee: 545.9 km
Apogee: 547.8 km
Inclination: 53.2 °
Period: 95.4 minutes
Semi major axis: 6917 km
RCS: Unknown
Launch date: September 24, 2022
Source: United States (US)
Launch site: AIR FORCE EASTERN TEST RANGE (AFETR)
Your satellite tracking list
Your tracking list is empty




NASA's NSSDC Master Catalog

Two Line Element Set (TLE):
1 53889U 22119D   25350.96383505  .00000578  00000-0  54419-4 0  9999
2 53889  53.2186 335.6457 0001380  87.7518 272.3632 15.08841212179195
Source of the keplerian elements: AFSPC